Time,TemperatureF,DewpointF,PressureIn,WindDirection,WindDirectionDegrees,WindSpeedMPH,WindSpeedGustMPH,Humidity,HourlyPrecipIn,Conditions,Clouds,dailyrainin,SolarRadiationWatts/m^2,SoftwareType,DateUTC
2013-07-29 00:00:00,53.0,52.0,-100.00,NNW,337,9.0,-999.0,93,-99.99,,,-99.99,0.000000,,2013-07-29 05:00:00,
2013-07-29 00:43:00,53.0,52.0,-100.00,NNW,337,9.0,-999.0,93,-99.99,,,-99.99,0.000000,,2013-07-29 05:43:00,
2013-07-29 00:53:00,53.0,52.0,-100.00,NNW,337,9.0,-999.0,93,-99.99,,,-99.99,0.000000,,2013-07-29 05:53:00,
2013-07-29 01:00:00,53.0,51.0,-100.00,North,0,7.0,-999.0,92,-99.99,,,-99.99,0.000000,,2013-07-29 06:00:00,
2013-07-29 01:43:00,53.0,51.0,-100.00,North,0,7.0,-999.0,92,-99.99,,,-99.99,0.000000,,2013-07-29 06:43:00,
2013-07-29 01:52:00,53.0,51.0,-100.00,North,0,7.0,-999.0,92,-99.99,,,-99.99,0.000000,,2013-07-29 06:52:00,
2013-07-29 02:00:00,52.0,50.0,-100.00,North,0,6.0,-999.0,92,-99.99,,,-99.99,0.000000,,2013-07-29 07:00:00,
2013-07-29 02:43:00,52.0,50.0,-100.00,North,0,6.0,-999.0,92,-99.99,,,-99.99,0.000000,,2013-07-29 07:43:00,
2013-07-29 02:53:00,52.0,50.0,-100.00,North,0,6.0,-999.0,92,-99.99,,,-99.99,0.000000,,2013-07-29 07:53:00,
2013-07-29 03:00:00,52.0,50.0,-100.00,North,0,5.0,-999.0,93,-99.99,,,-99.99,0.000000,,2013-07-29 08:00:00,
2013-07-29 03:42:00,52.0,50.0,-100.00,North,0,5.0,-999.0,93,-99.99,,,-99.99,0.000000,,2013-07-29 08:42:00,
2013-07-29 03:52:00,52.0,50.0,-100.00,North,0,5.0,-999.0,93,-99.99,,,-99.99,0.000000,,2013-07-29 08:52:00,
2013-07-29 04:00:00,52.0,50.0,-100.00,North,0,5.0,-999.0,94,-99.99,,,-99.99,0.000000,,2013-07-29 09:00:00,
2013-07-29 04:33:00,52.0,50.0,-100.00,North,0,5.0,-999.0,94,-99.99,,,-99.99,0.000000,,2013-07-29 09:33:00,
2013-07-29 04:43:00,52.0,50.0,-100.00,North,0,5.0,-999.0,94,-99.99,,,-99.99,0.000000,,2013-07-29 09:43:00,
2013-07-29 04:53:00,52.0,50.0,-100.00,North,0,5.0,-999.0,94,-99.99,,,-99.99,0.000000,,2013-07-29 09:53:00,
2013-07-29 05:00:00,52.0,51.0,-100.00,North,0,4.0,-999.0,94,-99.99,,,-99.99,0.000000,,2013-07-29 10:00:00,
2013-07-29 05:39:00,52.0,51.0,-100.00,North,0,4.0,-999.0,94,-99.99,,,-99.99,0.000000,,2013-07-29 10:39:00,
2013-07-29 05:49:00,52.0,51.0,-100.00,North,0,4.0,-999.0,94,-99.99,,,-99.99,0.000000,,2013-07-29 10:49:00,
2013-07-29 05:55:00,52.0,51.0,-100.00,North,0,4.0,-999.0,94,-99.99,,,-99.99,0.000000,,2013-07-29 10:55:00,
2013-07-29 06:00:00,53.0,51.0,-100.00,North,0,5.0,-999.0,95,-99.99,,,-99.99,4.640000,,2013-07-29 11:00:00,
2013-07-29 06:48:00,53.0,51.0,-100.00,North,0,5.0,-999.0,95,-99.99,,,-99.99,4.640000,,2013-07-29 11:48:00,
2013-07-29 06:59:00,53.0,51.0,-100.00,North,0,5.0,-999.0,95,-99.99,,,-99.99,4.640000,,2013-07-29 11:59:00,
2013-07-29 07:00:00,54.0,52.0,-100.00,NW,315,7.0,-999.0,94,-99.99,,,-99.99,35.959999,,2013-07-29 12:00:00,
2013-07-29 07:49:00,54.0,52.0,-100.00,NW,315,7.0,-999.0,94,-99.99,,,-99.99,35.959999,,2013-07-29 12:49:00,
2013-07-29 07:58:00,54.0,52.0,-100.00,NW,315,7.0,-999.0,94,-99.99,,,-99.99,35.959999,,2013-07-29 12:58:00,
2013-07-29 08:00:00,54.0,52.0,-100.00,NW,315,7.0,-999.0,92,-99.99,,,-99.99,85.839996,,2013-07-29 13:00:00,
2013-07-29 08:45:00,54.0,52.0,-100.00,NW,315,7.0,-999.0,92,-99.99,,,-99.99,85.839996,,2013-07-29 13:45:00,
2013-07-29 08:57:00,54.0,52.0,-100.00,NW,315,7.0,-999.0,92,-99.99,,,-99.99,85.839996,,2013-07-29 13:57:00,
2013-07-29 09:00:00,56.0,53.0,-100.00,NNW,337,7.0,-999.0,90,-99.99,,,-99.99,163.559998,,2013-07-29 14:00:00,
2013-07-29 09:48:00,56.0,53.0,-100.00,NNW,337,7.0,-999.0,90,-99.99,,,-99.99,163.559998,,2013-07-29 14:48:00,
2013-07-29 09:57:00,56.0,53.0,-100.00,NNW,337,7.0,-999.0,90,-99.99,,,-99.99,163.559998,,2013-07-29 14:57:00,
2013-07-29 10:00:00,57.0,54.0,-100.00,NNW,337,6.0,-999.0,89,-99.99,,,-99.99,229.679993,,2013-07-29 15:00:00,
2013-07-29 10:46:00,57.0,54.0,-100.00,NNW,337,6.0,-999.0,89,-99.99,,,-99.99,229.679993,,2013-07-29 15:46:00,
2013-07-29 10:56:00,57.0,54.0,-100.00,NNW,337,6.0,-999.0,89,-99.99,,,-99.99,229.679993,,2013-07-29 15:56:00,
2013-07-29 11:00:00,61.0,55.0,-100.00,NNW,337,7.0,-999.0,82,-99.99,,,-99.99,593.919983,,2013-07-29 16:00:00,
2013-07-29 11:42:00,61.0,55.0,-100.00,NNW,337,7.0,-999.0,82,-99.99,,,-99.99,593.919983,,2013-07-29 16:42:00,
2013-07-29 11:48:00,61.0,55.0,-100.00,NNW,337,7.0,-999.0,82,-99.99,,,-99.99,593.919983,,2013-07-29 16:48:00,
2013-07-29 11:57:00,61.0,55.0,-100.00,NNW,337,7.0,-999.0,82,-99.99,,,-99.99,593.919983,,2013-07-29 16:57:00,
2013-07-29 12:00:00,64.0,56.0,-100.00,NW,315,5.0,-999.0,75,-99.99,,,-99.99,748.200012,,2013-07-29 17:00:00,
2013-07-29 12:45:00,64.0,56.0,-100.00,NW,315,5.0,-999.0,75,-99.99,,,-99.99,748.200012,,2013-07-29 17:45:00,
2013-07-29 12:59:00,64.0,56.0,-100.00,NW,315,5.0,-999.0,75,-99.99,,,-99.99,748.200012,,2013-07-29 17:59:00,
2013-07-29 13:00:00,67.0,55.0,-100.00,North,0,4.0,-999.0,64,-99.99,,,-99.99,792.280029,,2013-07-29 18:00:00,
2013-07-29 13:47:00,67.0,55.0,-100.00,North,0,4.0,-999.0,64,-99.99,,,-99.99,792.280029,,2013-07-29 18:47:00,
2013-07-29 14:00:00,68.0,56.0,-100.00,WNW,292,5.0,-999.0,63,-99.99,,,-99.99,806.200012,,2013-07-29 19:00:00,
2013-07-29 14:48:00,68.0,56.0,-100.00,WNW,292,5.0,-999.0,63,-99.99,,,-99.99,806.200012,,2013-07-29 19:48:00,
2013-07-29 15:49:00,70.0,55.0,-100.00,West,270,3.0,-999.0,59,-99.99,,,-99.99,755.159973,,2013-07-29 20:49:00,
2013-07-29 15:58:00,70.0,55.0,-100.00,West,270,3.0,-999.0,59,-99.99,,,-99.99,755.159973,,2013-07-29 20:58:00,
2013-07-29 16:00:00,71.0,58.0,-100.00,SE,135,3.0,-999.0,62,-99.99,,,-99.99,671.640015,,2013-07-29 21:00:00,
2013-07-29 16:49:00,71.0,58.0,-100.00,SE,135,3.0,-999.0,62,-99.99,,,-99.99,671.640015,,2013-07-29 21:49:00,
2013-07-29 17:47:00,69.0,57.0,-100.00,SSE,157,4.0,-999.0,66,-99.99,,,-99.99,457.040009,,2013-07-29 22:47:00,
2013-07-29 17:57:00,69.0,57.0,-100.00,SSE,157,4.0,-999.0,66,-99.99,,,-99.99,457.040009,,2013-07-29 22:57:00,
2013-07-29 18:00:00,67.0,56.0,-100.00,South,180,3.0,-999.0,68,-99.99,,,-99.99,334.079987,,2013-07-29 23:00:00,
2013-07-29 18:36:00,67.0,56.0,-100.00,South,180,3.0,-999.0,68,-99.99,,,-99.99,334.079987,,2013-07-29 23:36:00,
2013-07-29 18:47:00,67.0,56.0,-100.00,South,180,3.0,-999.0,68,-99.99,,,-99.99,334.079987,,2013-07-29 23:47:00,
2013-07-29 18:57:00,67.0,56.0,-100.00,South,180,3.0,-999.0,68,-99.99,,,-99.99,334.079987,,2013-07-29 23:57:00,
2013-07-29 19:00:00,67.0,56.0,-100.00,South,180,3.0,-999.0,68,-99.99,,,-99.99,261.000000,,2013-07-30 00:00:00,
2013-07-29 19:35:00,67.0,56.0,-100.00,South,180,3.0,-999.0,68,-99.99,,,-99.99,261.000000,,2013-07-30 00:35:00,
2013-07-29 19:51:00,67.0,56.0,-100.00,South,180,3.0,-999.0,68,-99.99,,,-99.99,261.000000,,2013-07-30 00:51:00,
2013-07-29 19:57:00,67.0,56.0,-100.00,South,180,3.0,-999.0,68,-99.99,,,-99.99,261.000000,,2013-07-30 00:57:00,
2013-07-29 20:00:00,64.0,55.0,-100.00,South,180,2.0,-999.0,74,-99.99,,,-99.99,75.400002,,2013-07-30 01:00:00,
2013-07-29 20:38:00,64.0,55.0,-100.00,South,180,2.0,-999.0,74,-99.99,,,-99.99,75.400002,,2013-07-30 01:38:00,
2013-07-29 20:46:00,64.0,55.0,-100.00,South,180,2.0,-999.0,74,-99.99,,,-99.99,75.400002,,2013-07-30 01:46:00,
2013-07-29 21:00:00,59.0,53.0,-100.00,SSE,157,1.0,-999.0,83,-99.99,,,-99.99,3.480000,,2013-07-30 02:00:00,
2013-07-29 21:46:00,59.0,53.0,-100.00,SSE,157,1.0,-999.0,83,-99.99,,,-99.99,3.480000,,2013-07-30 02:46:00,
2013-07-29 21:56:00,59.0,53.0,-100.00,SSE,157,1.0,-999.0,83,-99.99,,,-99.99,3.480000,,2013-07-30 02:56:00,
2013-07-29 22:00:00,56.0,52.0,-100.00,South,180,1.0,-999.0,88,-99.99,,,-99.99,0.000000,,2013-07-30 03:00:00,
2013-07-29 22:48:00,56.0,52.0,-100.00,South,180,1.0,-999.0,88,-99.99,,,-99.99,0.000000,,2013-07-30 03:48:00,
2013-07-29 22:56:00,56.0,52.0,-100.00,South,180,1.0,-999.0,88,-99.99,,,-99.99,0.000000,,2013-07-30 03:56:00,
2013-07-29 23:00:00,54.0,53.0,-100.00,SW,225,2.0,-999.0,93,-99.99,,,-99.99,0.000000,,2013-07-30 04:00:00,
2013-07-29 23:33:00,54.0,53.0,-100.00,SW,225,2.0,-999.0,93,-99.99,,,-99.99,0.000000,,2013-07-30 04:33:00,
2013-07-29 23:43:00,54.0,53.0,-100.00,SW,225,2.0,-999.0,93,-99.99,,,-99.99,0.000000,,2013-07-30 04:43:00,
2013-07-29 23:53:00,54.0,53.0,-100.00,SW,225,2.0,-999.0,93,-99.99,,,-99.99,0.000000,,2013-07-30 04:53:00,